• In Hungary
  • List of Countries
  • For 7 days
  • Water Temperature
  • Satellite Maps
  • Weather Map
  • News
  • Weather Widgets
  • user-avatar
    Login

    Hourly Weather Barvinok

    Today, 20 January, Saturday

    Time Temperature Precipitation Wind Pressure Humidity
    00:00 -1°C° 0 mm 2 mps 756 mmHg 82%
    01:00 -1°C° 0 mm 2 mps 756 mmHg 82%
    02:00 -1°C° 0 mm 2 mps 756 mmHg 81%
    03:00 +1°C° 0 mm 2 mps 756 mmHg 82%
    04:00 +2°C° 0 mm 1 mps 756 mmHg 82%
    05:00 +2°C° 0 mm 1 mps 756 mmHg 82%
    06:00 +1°C° 0 mm 2 mps 755 mmHg 83%
    07:00 +2°C° 0 mm 2 mps 755 mmHg 83%
    08:00 +1°C° 0 mm 3 mps 755 mmHg 84%
    09:00 +1°C° 0 mm 3 mps 755 mmHg 84%
    10:00 +3°C° 0 mm 2 mps 755 mmHg 85%
    11:00 +3°C° 0 mm 2 mps 756 mmHg 85%
    12:00 +4°C° 0.1 mm 2 mps 755 mmHg 86%
    13:00 +4°C° 0.1 mm 2 mps 755 mmHg 87%
    14:00 +4°C° 0.1 mm 2 mps 755 mmHg 88%
    15:00 +4°C° 0.3 mm 2 mps 754 mmHg 90%
    16:00 +3°C° 0.3 mm 2 mps 754 mmHg 91%
    17:00 +3°C° 0.3 mm 2 mps 754 mmHg 93%
    18:00 +3°C° 0.1 mm 2 mps 754 mmHg 93%
    19:00 +2°C° 0.1 mm 2 mps 754 mmHg 93%
    20:00 +1°C° 0.1 mm 3 mps 754 mmHg 94%
    21:00 +1°C° 0.6 mm 3 mps 753 mmHg 94%
    22:00 +1°C° 0.6 mm 3 mps 753 mmHg 94%
    23:00 +2°C° 0.6 mm 3 mps 753 mmHg 95%

    Tomorrow, 21 January, Sunday

    Time Temperature Precipitation Wind Pressure Humidity
    00:00 +1°C° 1.1 mm 3 mps 753 mmHg 95%
    01:00 0°C° 1.1 mm 4 mps 752 mmHg 95%
    02:00 0°C° 1.1 mm 4 mps 752 mmHg 96%
    03:00 0°C° 0.7 mm 5 mps 752 mmHg 95%
    04:00 -2°C° 0.7 mm 6 mps 751 mmHg 94%
    05:00 -2°C° 0.7 mm 6 mps 751 mmHg 93%
    06:00 -3°C° 0.2 mm 6 mps 752 mmHg 91%
    07:00 -3°C° 0.2 mm 6 mps 752 mmHg 90%
    08:00 -4°C° 0.2 mm 6 mps 753 mmHg 89%
    09:00 -3°C° 0 mm 6 mps 754 mmHg 87%
    10:00 -2°C° 0 mm 5 mps 755 mmHg 84%
    11:00 -2°C° 0 mm 5 mps 756 mmHg 82%
    12:00 -2°C° 0 mm 4 mps 756 mmHg 80%
    13:00 0°C° 0 mm 3 mps 756 mmHg 78%
    14:00 0°C° 0 mm 3 mps 756 mmHg 77%
    15:00 -1°C° 0 mm 2 mps 756 mmHg 79%
    16:00 -2°C° 0 mm 2 mps 757 mmHg 81%
    17:00 -2°C° 0 mm 2 mps 757 mmHg 83%
    18:00 -2°C° 0 mm 2 mps 757 mmHg 84%
    19:00 -2°C° 0 mm 3 mps 757 mmHg 84%
    20:00 -2°C° 0 mm 3 mps 757 mmHg 84%
    21:00 -2°C° 0 mm 3 mps 757 mmHg 83%
    22:00 -3°C° 0 mm 4 mps 757 mmHg 83%
    23:00 -3°C° 0 mm 4 mps 757 mmHg 82%

    Day after tomorrow, 22 January, Monday

    Time Temperature Precipitation Wind Pressure Humidity
    00:00 -4°C° 0 mm 5 mps 757 mmHg 81%
    01:00 -4°C° 0 mm 5 mps 756 mmHg 81%
    02:00 -5°C° 0 mm 5 mps 756 mmHg 80%
    03:00 -5°C° 0 mm 5 mps 755 mmHg 80%
    04:00 -5°C° 0 mm 6 mps 755 mmHg 80%
    05:00 -5°C° 0 mm 6 mps 754 mmHg 79%
    06:00 -4°C° 0 mm 6 mps 754 mmHg 79%
    07:00 -4°C° 0 mm 7 mps 754 mmHg 78%
    08:00 -4°C° 0 mm 7 mps 754 mmHg 78%
    09:00 -4°C° 0.1 mm 7 mps 754 mmHg 79%
    10:00 -3°C° 0.1 mm 7 mps 754 mmHg 80%
    11:00 -3°C° 0.1 mm 7 mps 754 mmHg 81%
    12:00 -4°C° 0.3 mm 8 mps 754 mmHg 82%
    13:00 -4°C° 0.3 mm 8 mps 753 mmHg 84%
    14:00 -4°C° 0.3 mm 8 mps 753 mmHg 86%
    15:00 -4°C° 0.1 mm 9 mps 753 mmHg 86%
    16:00 -5°C° 0.1 mm 9 mps 753 mmHg 86%
    17:00 -5°C° 0.1 mm 9 mps 754 mmHg 86%
    18:00 -5°C° 0.1 mm 9 mps 754 mmHg 86%
    19:00 -5°C° 0.1 mm 9 mps 754 mmHg 86%
    20:00 -6°C° 0.1 mm 9 mps 755 mmHg 86%
    21:00 -6°C° 0 mm 9 mps 755 mmHg 85%
    22:00 -6°C° 0 mm 9 mps 755 mmHg 84%
    23:00 -6°C° 0 mm 9 mps 755 mmHg 84%

    23 January, Tuesday

    Time Temperature Precipitation Wind Pressure Humidity
    00:00 -6°C° 0 mm 9 mps 755 mmHg 84%
    01:00 -6°C° 0 mm 9 mps 756 mmHg 83%
    02:00 -6°C° 0 mm 9 mps 756 mmHg 83%
    03:00 -6°C° 0 mm 9 mps 756 mmHg 83%
    04:00 -6°C° 0 mm 9 mps 756 mmHg 82%
    05:00 -6°C° 0 mm 9 mps 757 mmHg 82%
    06:00 -6°C° 0 mm 9 mps 757 mmHg 81%
    07:00 -6°C° 0 mm 9 mps 758 mmHg 81%
    08:00 -8°C° 0 mm 9 mps 759 mmHg 81%
    09:00 -7°C° 0 mm 10 mps 759 mmHg 80%
    10:00 -7°C° 0 mm 10 mps 760 mmHg 79%
    11:00 -7°C° 0 mm 10 mps 760 mmHg 78%
    12:00 -7°C° 0 mm 10 mps 761 mmHg 78%
    13:00 -7°C° 0 mm 10 mps 761 mmHg 77%
    14:00 -7°C° 0 mm 10 mps 761 mmHg 77%
    15:00 -8°C° 0 mm 10 mps 762 mmHg 77%
    16:00 -8°C° 0 mm 9 mps 763 mmHg 77%
    17:00 -9°C° 0 mm 9 mps 764 mmHg 78%
    18:00 -9°C° 0 mm 9 mps 764 mmHg 77%
    19:00 -10°C° 0 mm 9 mps 765 mmHg 77%
    20:00 -10°C° 0 mm 9 mps 766 mmHg 76%
    21:00 -10°C° 0 mm 9 mps 766 mmHg 76%
    22:00 -11°C° 0 mm 9 mps 767 mmHg 75%
    23:00 -11°C° 0 mm 8 mps 767 mmHg 75%

    24 January, Wednesday

    Time Temperature Precipitation Wind Pressure Humidity
    00:00 -11°C° 0 mm 8 mps 767 mmHg 75%
    01:00 -11°C° 0 mm 8 mps 768 mmHg 74%
    02:00 -11°C° 0 mm 8 mps 768 mmHg 74%
    03:00 -11°C° 0 mm 8 mps 769 mmHg 74%
    04:00 -12°C° 0 mm 7 mps 769 mmHg 74%
    05:00 -12°C° 0 mm 7 mps 770 mmHg 74%
    06:00 -12°C° 0 mm 7 mps 770 mmHg 76%
    07:00 -12°C° 0 mm 7 mps 771 mmHg 78%
    08:00 -11°C° 0 mm 6 mps 771 mmHg 80%
    09:00 -10°C° 0 mm 6 mps 772 mmHg 78%
    10:00 -9°C° 0 mm 6 mps 772 mmHg 76%
    11:00 -8°C° 0 mm 6 mps 772 mmHg 74%
    12:00 -8°C° 0 mm 6 mps 772 mmHg 74%
    13:00 -8°C° 0 mm 6 mps 772 mmHg 75%
    14:00 -6°C° 0 mm 6 mps 772 mmHg 75%
    15:00 -7°C° 0 mm 5 mps 773 mmHg 78%
    16:00 -8°C° 0 mm 5 mps 773 mmHg 81%
    17:00 -8°C° 0 mm 5 mps 773 mmHg 84%
    18:00 -9°C° 0 mm 4 mps 774 mmHg 84%
    19:00 -9°C° 0 mm 4 mps 774 mmHg 84%
    20:00 -10°C° 0 mm 4 mps 774 mmHg 84%
    21:00 -10°C° 0 mm 4 mps 774 mmHg 84%
    22:00 -10°C° 0 mm 4 mps 774 mmHg 84%
    23:00 -9°C° 0 mm 3 mps 774 mmHg 84%

    25 January, Thursday

    Time Temperature Precipitation Wind Pressure Humidity
    00:00 -10°C° 0 mm 3 mps 775 mmHg 84%
    01:00 -10°C° 0 mm 3 mps 775 mmHg 84%
    02:00 -10°C° 0 mm 3 mps 775 mmHg 85%
    03:00 -10°C° 0 mm 3 mps 775 mmHg 85%
    04:00 -9°C° 0 mm 2 mps 775 mmHg 85%
    05:00 -9°C° 0 mm 2 mps 775 mmHg 85%
    06:00 -9°C° 0 mm 2 mps 775 mmHg 85%
    07:00 -9°C° 0 mm 2 mps 775 mmHg 85%
    08:00 -9°C° 0 mm 2 mps 775 mmHg 85%
    09:00 -8°C° 0 mm 2 mps 775 mmHg 80%
    10:00 -7°C° 0 mm 2 mps 775 mmHg 76%
    11:00 -7°C° 0 mm 3 mps 775 mmHg 71%
    12:00 -6°C° 0 mm 2 mps 775 mmHg 68%
    13:00 -5°C° 0 mm 2 mps 774 mmHg 66%
    14:00 -4°C° 0 mm 2 mps 774 mmHg 63%
    15:00 -5°C° 0 mm 2 mps 774 mmHg 67%
    16:00 -5°C° 0 mm 2 mps 774 mmHg 70%
    17:00 -6°C° 0 mm 2 mps 774 mmHg 74%
    18:00 -6°C° 0 mm 2 mps 773 mmHg 75%
    19:00 -6°C° 0 mm 2 mps 773 mmHg 77%
    20:00 -7°C° 0 mm 2 mps 773 mmHg 78%
    21:00 -7°C° 0 mm 2 mps 773 mmHg 79%
    22:00 -7°C° 0 mm 2 mps 773 mmHg 79%
    23:00 -7°C° 0 mm 2 mps 773 mmHg 80%
    Show more